GP-B

导读

GP-B(引力探测器B)是美国航空航天局于2004年4月20日发射的科学探测卫星,项目研发超四十年,总耗资达七亿五千万美元。它的核心任务是测量地球周围时空曲率,检验爱因斯坦广义相对论的两项关键预言。任务飞行持续至2005年,后续数据分析证实测地线效应精度误差小于1%,是相对论实验验证领域的标志性项目。

Basic Information
目录编号:
28230
目录名称:
GP-B
国际标识:
2004-014A
轨道中心:
EARTH
卫星名称:
GP-B
卫星全名:
--
卫星状态:
在轨 (已飞行8179 天)
发射日期:
2004-04-20 UTC
国别 :
美国 (US)
星等 :
--
This satellite is enrolled in the Space Conjunction Data Service (SCDS) and the current flight risk assessment level is: No High Risk
Orbit Information
数据来源 国际轨道数据 AOE轨道数据
星历时间 2026-09-11T12:16:53+0800
12小时前
查看轨道信息
2026-09-10T07:00:00+0800
1天前
查看轨道信息
半长轴 6996.842km 6996.843km
偏心率 0.0002408 0.0002414
轨道倾角 89.851° 89.852°
近地点辐角 74.948° 73.096°
升交点赤经 48.551° 48.575°
平近点角 285.201° 256.201°
近地点 617.02km 617.016km
远地点 620.39km 620.396km
周期 97.076分钟 97.076分钟
每日圈数 14.833707 14.833704
Detailed Information
使用方式:
暂无
2D Orbit Map
3D Orbit Map
Orbit Altitude Analysis Chart
Orbit Inclination Analysis Chart
Orbit Comprehensive Analysis Chart
View Comprehensive Chart
Conjunction Data List
Event ID Objects TCA Miss Dist (km) Collision Risk Probability Collision Risk Index (CRI) Action
CDM_260912-112402-823003-584826
GP-B (28230)
2026-09-12T
11:24:18+0000
2.030 km
极远距离
2.750189E-6 低风险 0.44
CDM_260906-055202-823006-512526
GP-B (28230)
2026-09-06T
05:52:29+0000
2.393 km
极远距离
1.675874E-6 低风险 0.39
CDM_260913-162302-823006-556022
GP-B (28230)
2026-09-13T
16:23:30+0000
2.297 km
极远距离
1.472275E-6 低风险 0.38
Miss Distance Evolution Trend with All Objects
Collision Probability Evolution Trend with All Objects